Location: Dillon
(41.1766°N, 107.0923°W)
Time: 11:06:53
(UTC+00:00)

RS-44 - Pass Details

Date: 04 July 2022
Orbit: 1175 x 1510 km, 82.5° (Epoch: 11 August)

Event Time Altitude Azimuth Distance (km) Brightness Sun altitude
Rises 05:45:48 0° 258° (WSW) 4,437 ? -22.8°
Reaches altitude 10° 05:51:53 10° 292° (WNW) 3,554 ? -23.3°
Maximum altitude 05:53:59 11° 307° (NW) 3,503 ? -23.4°
Drops below altitude 10° 05:56:07 10° 321° (NW) 3,606 ? -23.5°
Sets 06:02:33 0° 355° (N) 4,643 ? -23.9°
